This demonstration page uses our WeatherBlox Daily Observations layout. Learn more.

Left ArrowRight Arrow

39.01783, -85.05884

Hourly Observations for July 9, 2020

Temp ( °F °C ) Dew Point ( °F °C ) Humidity (%) Winds ( mph kmh ) Pressure ( in mb ) Visibility ( mi km ) Precip ( " mm )
12:52 am 00:52 Mostly Clear 74 23.3 70 21.1 88 88 Calm 29.90 1013 10 16 0.00 0.00
1:52 am 01:52 Partly Cloudy 75 23.9 70 21.1 84 84 Calm 29.90 1012 9 14 0.00 0.00
2:52 am 02:52 Mostly Clear 77 25 69 20.6 77 77 VRB 3 6 29.88 1012 10 16 0.00 0.00
3:52 am 03:52 Mostly Clear 74 23.3 69 20.6 85 85 Calm 29.88 1012 9 14 0.00 0.00
4:52 am 04:52 Clear 71 21.7 69 20.6 94 94 Calm 29.88 1012 8 13 0.00 0.00
5:52 am 05:52 Clear 75 23.9 69 20.6 82 82 NW 5 7 29.88 1012 8 13 0.00 0.00
6:52 am 06:52 Sunny with Mist and Fog 74 23.3 70 21.1 88 88 N 3 6 29.91 1013 5 8 0.00 0.00
7:52 am 07:52 Hazy 76 24.4 71 21.7 85 85 NW 3 6 29.93 1014 6 10 0.00 0.00
8:52 am 08:52 Mostly Sunny 82 27.8 70 21.1 67 67 Calm 29.91 1013 8 13 0.00 0.00
9:52 am 09:52 Mostly Sunny 86 30 72 22.2 63 63 Calm 29.92 1013 10 16 0.00 0.00
10:52 am 10:52 Mostly Sunny 86 30 69 20.6 57 57 Calm 29.92 1013 10 16 0.00 0.00
11:28 am 11:28 Partly Cloudy with Thunderstorms 85 29.4 71 21.7 63 63 Calm 29.91 1013 9 14 0.00 0.00
11:36 am 11:36 Mostly Cloudy with Thunderstorms 82 27.8 70 21.1 67 67 ENE 23 37 29.92 1013 0 0 0.00 0.00
11:40 am 11:40 Mostly Cloudy with Thunderstorms 80 26.7 68 20 67 67 ENE 25 41 29.92 1013 0 0 0.00 0.00
11:43 am 11:43 Mostly Cloudy with Thunderstorms 80 26.7 65 18.3 60 60 ENE 14 22 29.93 1013 3 4 0.00 0.00
11:52 am 11:52 Mostly Cloudy with Thunderstorms 78 25.6 65 18.3 64 64 undefined N/A 29.93 1013 4 6 0.09 2.29
12:19 pm 12:19 Mostly Cloudy with Thunderstorms 78 25.6 69 20.6 74 74 S 13 20 29.92 1013 7 11 0.43 10.92
12:52 pm 12:52 Mostly Cloudy with Thunderstorms 81 27.2 70 21.1 69 69 S 5 7 29.92 1013 7 11 0.47 11.94
1:02 pm 13:02 Mostly Cloudy with Light Rain 78 25.6 69 20.6 74 74 SSE 7 11 29.92 1013 10 16 0.00 0.00
1:52 pm 13:52 Partly Cloudy 89 31.7 67 19.4 48 48 Calm 29.90 1013 10 16 0.00 0.00
2:05 pm 14:05 Partly Cloudy with Thunderstorms 90 32.2 68 20 48 48 Calm 29.87 1012 10 16 0.00 0.00
2:40 pm 14:40 Partly Cloudy 84 28.9 71 21.7 65 65 SSE 13 20 29.86 1011 10 16 0.00 0.00
2:52 pm 14:52 Partly Cloudy 87 30.6 71 21.7 59 59 SSE 9 15 29.87 1011 10 16 0.00 0.00
3:52 pm 15:52 Mostly Cloudy 80 26.7 69 20.6 69 69 S 15 24 29.89 1012 10 16 0.00 0.00
4:52 pm 16:52 Mostly Cloudy 84 28.9 66 18.9 55 55 SSW 6 9 29.87 1011 10 16 0.00 0.00
5:52 pm 17:52 Mostly Cloudy 81 27.2 69 20.6 67 67 WSW 6 9 29.85 1011 10 16 0.00 0.00
6:52 pm 18:52 Mostly Cloudy 82 27.8 69 20.6 65 65 W 3 6 29.85 1011 10 16 0.00 0.00
7:52 pm 19:52 Partly Cloudy 84 28.9 69 20.6 61 61 WNW 3 6 29.86 1011 10 16 0.00 0.00
8:52 pm 20:52 Partly Cloudy 80 26.7 70 21.1 71 71 Calm 29.86 1011 10 16 0.00 0.00
9:52 pm 21:52 Partly Cloudy 77 25 70 21.1 79 79 SSE 6 9 29.85 1011 10 16 0.00 0.00
10:52 pm 22:52 Partly Cloudy 77 25 69 20.6 77 77 WSW 5 7 29.86 1011 10 16 0.00 0.00
11:52 pm 23:52 Mostly Clear 77 25 70 21.1 79 79 Calm 29.86 1011 10 16 0.00 0.00

Powered by AerisWeather